sat.trackr.live / text

‹ back to catalog

ONEWEB-0181

NORAD 48230 · 2021-031W

PAYLOAD ACTIVE UNKNOWN

§ Identity

Operator
Country
UK
Launch date
2021-04-25
Launch site
VOSTO
Launch vehicle
Mass (kg)
RCS (m²)

Purposes: comms

External: N2YO · Heavens-Above · Gunter

§ Orbital elements

Epoch: 2026-09-19T18:51:08.372448Z

Period
109.55 min
Inclination
87.8894°
Eccentricity
0.0001615
Mean motion
13.14505164 rev/d
Perigee alt
1,204.6 km
Apogee alt
1,207.0 km
Semi-major
7,583.9 km
B*
5.9241e-4
RAAN
270.8500°
Arg perigee
96.5344°
Mean anomaly
263.5970°
Rev number
26,066

§ Raw data

ONEWEB-01811 48230U 21031W   26262.78551357  .00000232  00000+0  59241-3 0  99932 48230  87.8894 270.8500 0001615  96.5344 263.5970 13.14505164260661

JSON: /api/v1/satellites/48230 · /tle

For live sub-satellite position, see the globe view (requires WebGL).

§ Visibility from observer

Set your observer location to see the next 7 days of passes ≥ 10°. The values pass through the URL so the page stays shareable.

No JS? Fill the form by hand. The geolocation button needs JavaScript.